DW8248 Weather Reports


Display with metric or nautical units.
time (UTC)temp
F
wind
direction
speed
MPH
gust
MPH
rain 1hr
in
rain 24hr
in
rain mn
in
humidity
%
barometer
mb
20260509211702 84 163 13.0 22.0 0.00 0.00 0.00 76 1010.4
20260509210657 84 137 12.0 20.0 0.00 0.00 0.00 76 1010.6
20260509204457 84 119 13.0 21.0 0.00 0.00 0.00 75 1010.5
20260509203510 85 121 13.0 21.0 0.00 0.00 0.00 73 1010.6
20260509202508 84 125 13.0 22.0 0.00 0.00 0.00 74 1010.6
20260509201528 84 122 12.0 24.0 0.00 0.00 0.00 74 1010.6
20260509200531 84 117 12.0 24.0 0.00 0.00 0.00 76 1010.7
20260509195514 84 124 10.0 18.0 0.00 0.00 0.00 75 1010.9
20260509194530 85 123 8.0 16.0 0.00 0.00 0.00 74 1011.1
20260509193550 84 161 10.0 18.0 0.00 0.00 0.00 75 1011.2
20260509191356 86 136 8.0 16.0 0.00 0.00 0.00 72 1011.4
20260509190328 86 139 8.0 16.0 0.00 0.00 0.00 69 1011.4
20260509184125 90 194 9.0 14.0 0.00 0.00 0.00 50 1011.8
20260509181942 90 204 11.0 15.0 0.00 0.00 0.00 55 1011.9
20260509180922 90 221 8.0 15.0 0.00 0.00 0.00 55 1011.9
20260509175851 90 196 11.0 18.0 0.00 0.00 0.00 51 1011.9
20260509174853 89 225 12.0 18.0 0.00 0.00 0.00 58 1012.0
20260509173821 89 192 11.0 19.0 0.00 0.00 0.00 57 1012.0
20260509172837 89 221 13.0 19.0 0.00 0.00 0.00 57 1012.1
20260509171825 89 191 11.0 17.0 0.00 0.00 0.00 60 1012.2
20260509170842 88 200 8.0 14.0 0.00 0.00 0.00 57 1012.2
20260509165830 88 198 10.0 13.0 0.00 0.00 0.00 62 1012.3
20260509164813 87 205 9.0 15.0 0.00 0.00 0.00 61 1012.4
20260509163829 88 195 10.0 15.0 0.00 0.00 0.00 58 1012.7
20260509162820 87 208 11.0 15.0 0.00 0.00 0.00 57 1012.7
20260509155547 86 214 12.0 18.0 0.00 0.00 0.00 58 1013.0
20260509154541 86 200 13.0 18.0 0.00 0.00 0.00 65 1013.1
20260509152415 86 180 12.0 16.0 0.00 0.00 0.00 62 1013.3
20260509151437 86 175 11.0 16.0 0.00 0.00 0.00 64 1013.5
20260509150415 85 220 12.0 16.0 0.00 0.00 0.00 60 1013.5
20260509145355 85 192 12.0 15.0 0.00 0.00 0.00 62 1013.6
20260509144330 84 200 9.0 13.0 0.00 0.00 0.00 64 1013.5
20260509143332 84 187 8.0 12.0 0.00 0.00 0.00 67 1013.4
20260509141208 83 196 7.0 10.0 0.00 0.00 0.00 71 1013.4
20260509140158 81 197 4.0 9.0 0.00 0.00 0.00 76 1013.4
20260509135206 80 178 3.0 7.0 0.00 0.00 0.00 79 1013.5
20260509134218 80 178 3.0 7.0 0.00 0.00 0.00 81 1013.6
20260509133227 79 148 2.0 5.0 0.00 0.00 0.00 82 1013.6
20260509131115 78 161 2.0 5.0 0.00 0.00 0.00 84 1013.7
20260509130131 77 194 3.0 5.0 0.00 0.00 0.00 84 1013.4
20260509125140 77 169 4.0 6.0 0.00 0.00 0.00 85 1013.4
20260509124117 77 167 4.0 7.0 0.00 0.00 0.00 85 1013.2
20260509123052 76 193 6.0 9.0 0.00 0.00 0.00 86 1013.1
20260509122053 76 193 7.0 9.0 0.00 0.00 0.00 86 1013.1
20260509121114 76 195 8.0 10.0 0.00 0.00 0.00 86 1013.1
20260509113920 76 198 7.0 9.0 0.00 0.00 0.00 86 1013.1
20260509112903 76 209 7.0 9.0 0.00 0.00 0.00 86 1013.1
20260509110752 76 207 5.0 7.0 0.00 0.00 0.00 86 1012.9
20260509105757 76 207 3.0 6.0 0.00 0.00 0.00 86 1012.9
20260509104813 76 237 4.0 5.0 0.00 0.00 0.00 86 1012.9
20260509103831 77 233 5.0 8.0 0.00 0.00 0.00 86 1012.6
20260509102823 77 198 7.0 10.0 0.00 0.00 0.00 86 1012.5
20260509101838 78 180 8.0 11.0 0.00 0.00 0.00 85 1012.5
20260509100854 78 178 8.0 12.0 0.00 0.00 0.00 85 1012.3
20260509095841 78 192 8.0 12.0 0.00 0.00 0.00 85 1012.3
20260509094822 78 140 8.0 11.0 0.00 0.00 0.00 84 1012.3
20260509093817 78 155 7.0 11.0 0.00 0.00 0.00 84 1012.3
20260509092751 78 160 6.0 10.0 0.00 0.00 0.00 84 1012.2
20260509090602 78 160 5.0 9.0 0.00 0.00 0.00 83 1012.3
20260509085537 78 161 5.0 9.0 0.00 0.00 0.00 83 1012.3
20260509084547 78 178 6.0 9.0 0.00 0.00 0.00 82 1012.5
20260509083516 78 184 5.0 7.0 0.00 0.00 0.00 82 1012.5
20260509082442 79 172 5.0 7.0 0.00 0.00 0.00 82 1012.5
20260509080345 79 176 3.0 5.0 0.00 0.00 0.00 82 1012.5
20260509075333 79 170 2.0 5.0 0.00 0.00 0.00 81 1012.6
20260509074349 79 190 3.0 5.0 0.00 0.00 0.00 81 1012.6
20260509073338 79 196 4.0 6.0 0.00 0.00 0.00 81 1012.6
20260509072310 79 201 4.0 6.0 0.00 0.00 0.00 80 1012.7
20260509071321 79 205 3.0 4.0 0.00 0.00 0.00 80 1012.9
20260509070247 79 191 1.0 3.0 0.00 0.00 0.00 80 1013.0
20260509065306 79 208 1.0 3.0 0.00 0.00 0.00 80 1013.1
20260509063116 79 243 2.0 5.0 0.00 0.00 0.00 81 1013.3
20260509060934 79 267 4.0 8.0 0.00 0.00 0.00 81 1013.5
20260509055943 79 288 5.0 8.0 0.00 0.00 0.00 81 1013.5
20260509054919 78 309 3.0 7.0 0.00 0.00 0.00 82 1013.6
20260509050523 79 269 7.0 15.0 0.00 0.00 0.00 82 1014.0
20260509045530 79 291 10.0 15.0 0.00 0.00 0.00 82 1014.2
20260509044518 80 295 9.0 12.0 0.00 0.00 0.00 81 1014.1
20260509043455 80 277 8.0 15.0 0.00 0.00 0.00 81 1014.1
20260509041419 80 198 7.0 11.0 0.00 0.00 0.00 81 1013.6
20260509040404 80 184 9.0 12.0 0.00 0.00 0.00 81 1013.4
20260509034301 80 170 8.0 11.0 0.00 0.00 0.00 82 1013.3
20260509033311 81 202 8.0 11.0 0.00 0.00 0.00 81 1013.3
20260509032307 81 175 8.0 13.0 0.00 0.00 0.00 81 1013.4
20260509031242 81 155 7.0 14.0 0.00 0.00 0.00 82 1013.5
20260509030254 81 153 10.0 15.0 0.00 0.00 0.00 81 1013.5
20260509025315 81 170 9.0 15.0 0.00 0.00 0.00 82 1013.4
20260509023205 80 129 9.0 14.0 0.00 0.00 0.00 83 1013.4
20260509022214 80 129 8.0 14.0 0.00 0.00 0.00 83 1013.2
20260509021204 80 146 7.0 12.0 0.00 0.00 0.00 83 1013.3
20260509020142 80 147 7.0 12.0 0.00 0.00 0.00 83 1013.3
20260509015149 80 132 5.0 11.0 0.00 0.00 0.00 83 1013.3
20260509014151 80 128 5.0 11.0 0.00 0.00 0.00 83 1013.2
20260509013133 80 152 6.0 11.0 0.00 0.00 0.00 83 1013.1
20260509012104 80 146 8.0 13.0 0.00 0.00 0.00 82 1012.9
20260509005932 80 127 6.0 13.0 0.00 0.00 0.00 82 1012.8
20260509003826 80 133 7.0 12.0 0.00 0.00 0.00 82 1012.8
20260509002813 80 132 7.0 14.0 0.00 0.00 0.00 81 1012.8
20260509001826 80 132 8.0 15.0 0.00 0.00 0.00 81 1012.6
20260509000800 80 132 7.0 15.0 0.00 0.00 0.00 81 1012.5
20260508235802 81 150 8.0 15.0 0.00 0.00 0.00 80 1012.3
20260508234817 81 148 7.0 14.0 0.00 0.00 0.00 79 1012.2
20260508233742 81 146 7.0 14.0 0.00 0.00 0.00 79 1012.0
20260508232718 81 143 8.0 14.0 0.00 0.00 0.00 79 1011.8
20260508231718 81 144 7.0 14.0 0.00 0.00 0.00 79 1011.9
20260508225510 81 153 8.0 15.0 0.00 0.00 0.00 77 1011.8
20260508224436 82 129 7.0 15.0 0.00 0.00 0.00 77 1011.8
20260508223429 82 128 6.0 13.0 0.00 0.00 0.00 78 1011.7
20260508222412 82 150 6.0 13.0 0.00 0.00 0.00 77 1011.6
20260508220312 82 134 7.0 13.0 0.00 0.00 0.00 78 1011.7
20260508215243 81 109 8.0 15.0 0.00 0.00 0.00 78 1011.7
20260508214247 82 131 8.0 15.0 0.00 0.00 0.00 78 1011.7
20260508213220 82 131 8.0 14.0 0.00 0.00 0.00 77 1011.8
20260508212146 82 111 7.0 13.0 0.00 0.00 0.00 77 1012.1